[[{"header":{"parameterUnit":"m.s-1","parameterCategory":1,"la1":30.2992,"la2":30.254,"lo1":-89.0895,"lo2":-89.0443,"dy":0.0025,"dx":0.0025,"nx":19,"ny":19,"refTime":"2026-03-10T03:00:00:Z","depth":0,"parameterNumber":2,"parameterNumberName":"U-component_of_WINDS"},"data":[0,0,0,-3.1083,-3.1082,-3.1049,-3.1049,-3.1029,-3.1029,0,0,0,0,0,0,0,0,0,0,0,-3.1107,-3.1107,-3.1083,-3.1082,-3.1049,-3.1049,-3.1029,-3.1029,0,0,0,0,0,0,0,0,0,0,0,-3.1107,-3.1107,-3.1108,-3.1082,-3.1049,-3.1049,-3.1029,-3.1046,0,0,0,0,0,0,0,0,0,0,-3.1074,-3.1111,-3.1107,-3.1108,-3.1082,-3.1049,-3.1049,-3.1046,-3.1045,-3.1054,0,-3.1067,0,-3.1048,-3.1029,-3.1029,0,0,0,-3.1071,-3.1112,-3.109,-3.1108,-3.1082,-3.1049,-3.1061,-3.1045,-3.1044,-3.1052,-3.1066,-3.1065,-3.1048,-3.1029,-3.1029,-3.1121,-3.1122,0,0,-3.1073,-3.1108,-3.1092,-3.109,-3.1097,-3.1062,-3.106,-3.1044,-3.1061,-3.1066,-3.1064,-3.1047,-3.1029,-3.1029,-3.112,-3.1122,0,0,0,-3.1086,-3.111,-3.1088,-3.1091,-3.1084,-3.1062,-3.1059,-3.1062,-3.1052,-3.1064,-3.1047,-3.1029,-3.1029,-3.1119,-3.1121,-3.1201,0,0,0,-3.1087,-3.1117,-3.109,-3.1111,-3.1085,-3.1072,-3.1078,-3.1053,-3.105,-3.1047,-3.1029,-3.1029,-3.1118,-3.112,-3.1197,-3.1233,0,0,0,-3.1104,-3.1119,-3.112,-3.1113,-3.11,-3.1072,-3.106,-3.1051,-3.104,-3.1029,-3.1029,-3.1117,-3.112,-3.1193,-3.1226,-3.1267,0,0,0,-3.1133,-3.1191,-3.1122,-3.118,-3.11,-3.1123,-3.106,-3.1075,-3.1075,-3.1029,-3.1118,-3.1121,-3.1192,-3.1222,-3.1263,-3.1308,-3.133,0,0,-3.1226,-3.1204,-3.1235,-3.1172,-3.1216,-3.1125,-3.118,-3.1146,-3.1113,-3.112,-3.1122,-3.1198,-3.1226,-3.1266,-3.1443,-3.146,0,0,0,-3.1277,-3.13,-3.1304,-3.1306,-3.1283,-3.1266,-3.1221,-3.1209,-3.1213,-3.1124,-3.1224,-3.1239,-3.1261,-3.1281,-3.1296,-3.1312,-3.1131,-3.1131,-3.1131,-3.1458,-3.1413,-3.1462,-3.1414,-3.1417,-3.1371,-3.1369,-3.1344,-3.1297,-3.1322,-3.1323,-3.1436,-3.146,-3.1471,-3.1489,-3.1344,-3.1344,-3.1344,-3.1345,-3.1589,-3.1614,-3.1552,-3.1578,-3.153,-3.1551,-3.1509,-3.1476,-3.1488,-3.1431,-3.1448,-3.1389,-3.1492,-3.1505,-3.135,-3.1349,-3.1349,-3.1348,-3.1348,-3.1701,-3.1706,-3.1691,-3.1691,-3.1696,-3.1644,-3.166,-3.1615,-3.1574,-3.1591,-3.1588,-3.1586,-3.1579,-3.1593,-3.1594,-3.1594,-3.1594,-3.1595,-3.1595,-3.1823,-3.1804,-3.1822,-3.1804,-3.18,-3.179,-3.1745,-3.174,-3.1723,-3.169,-3.1689,-3.164,-3.1511,-3.1479,-3.1601,-3.16,-3.1599,-3.1598,-3.1598,-3.1971,-3.1931,-3.196,-3.1956,-3.1931,-3.1939,-3.1884,-3.1877,-3.1867,-3.1876,-3.1823,-3.1736,-3.1709,-3.1697,-3.167,-3.1833,-3.1833,-3.1833,-3.1833,-3.2065,-3.2048,-3.2068,-3.2065,-3.2058,-3.2011,-3.2045,-3.2011,-3.197,-3.196,-3.1931,-3.1892,-3.1881,-3.1861,-3.1845,-3.1819,-3.2017,-3.2017,-3.2017,-3.2153,-3.2134,-3.2171,-3.2131,-3.2109,-3.209,-3.212,-3.212,-3.2065,-3.2023,-3.1952,-3.1944,-3.1881,-3.1863,-3.1818,-3.1795,-3.1746,0,0]},{"header":{"parameterUnit":"m.s-1","parameterCategory":1,"la1":30.2992,"la2":30.254,"lo1":-89.0895,"lo2":-89.0443,"dy":0.0025,"dx":0.0025,"nx":19,"ny":19,"refTime":"2026-03-10T03:00:00:Z","depth":0,"parameterNumber":3,"parameterNumberName":"V-component_of_WINDS"},"data":[0,0,0,2.9157,2.9158,2.92,2.92,2.9245,2.9245,0,0,0,0,0,0,0,0,0,0,0,2.9139,2.914,2.9157,2.9158,2.92,2.92,2.9245,2.9245,0,0,0,0,0,0,0,0,0,0,0,2.9139,2.914,2.914,2.9158,2.92,2.92,2.9245,2.9216,0,0,0,0,0,0,0,0,0,0,2.9177,2.9156,2.914,2.914,2.9158,2.92,2.92,2.9215,2.9218,2.9223,0,2.9225,0,2.9236,2.9248,2.9248,0,0,0,2.9162,2.9153,2.9169,2.914,2.9159,2.9199,2.9182,2.9217,2.922,2.9227,2.9225,2.9227,2.9237,2.9248,2.9248,2.9261,2.9261,0,0,2.916,2.9144,2.9167,2.9171,2.9164,2.9181,2.9183,2.9219,2.9217,2.9226,2.9229,2.9237,2.9248,2.9249,2.9261,2.9261,0,0,0,2.915,2.9142,2.9158,2.9169,2.9177,2.9182,2.9185,2.9215,2.9222,2.9229,2.9238,2.9249,2.9249,2.9262,2.9261,2.9241,0,0,0,2.9149,2.9137,2.9157,2.9147,2.9176,2.9197,2.918,2.9219,2.9224,2.9238,2.9249,2.9249,2.9262,2.9261,2.9241,2.9233,0,0,0,2.9139,2.9136,2.914,2.9146,2.9164,2.9196,2.9205,2.9221,2.9229,2.9248,2.9249,2.9262,2.9262,2.9242,2.9234,2.9233,0,0,0,2.9123,2.9119,2.9139,2.9139,2.9163,2.9183,2.9205,2.9221,2.9234,2.9249,2.9262,2.9261,2.9242,2.9235,2.9234,2.9229,2.9225,0,0,2.911,2.9117,2.9119,2.9138,2.915,2.9178,2.9188,2.9215,2.9231,2.9251,2.9251,2.9241,2.9234,2.9233,2.921,2.9207,0,0,0,2.9109,2.911,2.9117,2.913,2.9151,2.917,2.9197,2.9208,2.9226,2.9238,2.924,2.9237,2.9237,2.9235,2.9233,2.9234,2.926,2.926,2.926,2.9068,2.909,2.9094,2.9122,2.9134,2.9164,2.9177,2.9196,2.9213,2.9214,2.9219,2.9203,2.9201,2.9199,2.92,2.9219,2.9218,2.9218,2.9218,2.9052,2.9057,2.9082,2.9096,2.9119,2.9131,2.916,2.9173,2.9188,2.92,2.9201,2.9212,2.9195,2.9197,2.9217,2.9217,2.9217,2.9218,2.9218,2.9027,2.9034,2.9047,2.907,2.9085,2.9114,2.9127,2.9148,2.9168,2.9169,2.9178,2.9178,2.9182,2.9172,2.9172,2.9172,2.9172,2.9172,2.9171,2.8996,2.9012,2.9021,2.9046,2.9058,2.9077,2.9109,2.9122,2.9142,2.9156,2.9156,2.9174,2.9189,2.9193,2.9171,2.9171,2.9171,2.9171,2.9171,2.8972,2.8981,2.8995,2.9008,2.9039,2.9054,2.9081,2.9106,2.912,2.9127,2.9145,2.9153,2.9162,2.9164,2.9167,2.914,2.914,2.914,2.914,2.8951,2.8958,2.8979,2.8998,2.9019,2.9045,2.9062,2.9088,2.9115,2.9126,2.9133,2.9139,2.914,2.9149,2.9151,2.9154,2.9124,2.9124,2.9124,2.8938,2.8949,2.8958,2.8986,2.9013,2.9036,2.9053,2.9075,2.9108,2.9124,2.9135,2.9135,2.9145,2.9147,2.9162,2.9166,2.9172,0,0]}]]